K5OBH Weather Reports


Display with metric or nautical units.
time (UTC)temp
F
wind
direction
speed
MPH
gust
MPH
rain 1hr
in
rain 24hr
in
rain mn
in
humidity
%
barometer
mb
20260505225635 53 60 8.0 13.0 0.00 0.00 0.00 77 1010.0
20260505225132 53 88 5.0 11.0 0.00 0.00 0.00 78 1009.6
20260505224628 53 344 9.0 14.0 0.00 0.00 0.00 77 1009.5
20260505224126 53 2 9.0 16.0 0.00 0.00 0.00 78 1009.2
20260505223623 54 31 5.0 10.0 0.00 0.00 0.00 77 1009.3
20260505223119 53 26 3.0 8.0 0.00 0.00 0.00 77 1009.7
20260505222616 53 352 7.0 10.0 0.00 0.00 0.00 77 1009.4
20260505222112 53 34 4.0 14.0 0.00 0.00 0.00 78 1009.1
20260505221609 53 26 9.0 15.0 0.00 0.00 0.00 78 1009.4
20260505221105 53 358 6.0 15.0 0.00 0.00 0.00 77 1009.1
20260505220603 54 35 7.0 14.0 0.00 0.00 0.00 76 1009.2
20260505220100 54 49 7.0 11.0 0.00 0.00 0.00 76 1009.0
20260505215558 54 107 4.0 11.0 0.00 0.00 0.00 76 1009.2
20260505215055 55 357 9.0 15.0 0.00 0.00 0.00 75 1008.8
20260505214553 54 55 5.0 11.0 0.00 0.00 0.00 77 1008.5
20260505214049 54 345 7.0 14.0 0.00 0.00 0.00 77 1008.5
20260505213548 54 15 9.0 16.0 0.00 0.00 0.00 77 1008.3
20260505213044 54 2 7.0 13.0 0.00 0.00 0.00 78 1008.5
20260505212540 54 86 5.0 15.0 0.00 0.00 0.00 77 1008.8
20260505212038 55 7 7.0 10.0 0.00 0.00 0.00 77 1008.3
20260505211534 55 13 6.0 8.0 0.00 0.00 0.00 77 1008.6
20260505211031 55 22 7.0 11.0 0.00 0.00 0.00 78 1008.1
20260505210528 54 21 8.0 15.0 0.00 0.00 0.00 77 1007.6
20260505210025 54 347 12.0 21.0 0.00 0.00 0.00 77 1007.8
20260505205523 55 22 9.0 22.0 0.00 0.00 0.00 77 1007.4
20260505205020 55 15 11.0 20.0 0.00 0.00 0.00 77 1007.4
20260505204518 55 14 12.0 15.0 0.00 0.00 0.00 77 1008.3
20260505204015 55 354 10.0 20.0 0.00 0.00 0.00 78 1007.9
20260505203511 55 338 7.0 11.0 0.00 0.00 0.00 78 1008.1
20260505203008 55 46 10.0 16.0 0.00 0.00 0.00 79 1008.2
20260505202504 55 0 9.0 14.0 0.00 0.00 0.00 79 1008.4
20260505202000 54 344 10.0 15.0 0.00 0.00 0.00 80 1008.0
20260505201457 54 35 6.0 8.0 0.00 0.00 0.00 80 1008.6
20260505200955 54 359 6.0 11.0 0.00 0.00 0.00 81 1008.2
20260505200453 54 3 8.0 13.0 0.00 0.00 0.00 81 1008.2
20260505195948 54 9 12.0 17.0 0.00 0.00 0.00 81 1008.1
20260505195446 55 350 7.0 17.0 0.00 0.00 0.00 80 1007.8
20260505194943 54 28 9.0 15.0 0.00 0.00 0.00 81 1007.5
20260505194440 54 65 15.0 20.0 0.00 0.00 0.00 82 1007.8
20260505193940 55 297 8.0 15.0 0.00 0.00 0.00 82 1007.9
20260505193438 55 348 11.0 14.0 0.00 0.00 0.00 82 1007.6
20260505192935 55 356 6.0 14.0 0.00 0.00 0.00 83 1007.6
20260505192434 55 64 10.0 14.0 0.00 0.00 0.00 83 1007.9
20260505191931 55 7 5.0 13.0 0.00 0.00 0.00 82 1007.6
20260505191430 55 323 6.0 10.0 0.00 0.00 0.00 83 1007.9
20260505190926 56 356 7.0 13.0 0.00 0.00 0.00 83 1007.8
20260505190421 56 356 8.0 18.0 0.00 0.00 0.00 83 1007.8
20260505185916 56 11 5.0 13.0 0.00 0.00 0.00 82 1007.7
20260505185414 56 341 15.0 23.0 0.00 0.00 0.00 82 1007.4
20260505184910 57 352 7.0 16.0 0.00 0.00 0.00 81 1007.0
20260505184407 57 308 8.0 17.0 0.00 0.00 0.00 81 1007.2
20260505183904 57 9 5.0 15.0 0.00 0.00 0.00 81 1007.4
20260505183401 57 50 6.0 15.0 0.00 0.00 0.00 81 1007.5
20260505182857 57 9 8.0 13.0 0.00 0.00 0.00 81 1007.4
20260505182354 57 16 8.0 10.0 0.00 0.00 0.00 80 1007.4
20260505181851 57 1 8.0 14.0 0.00 0.00 0.00 82 1007.1
20260505181348 57 26 6.0 15.0 0.00 0.00 0.00 82 1007.2
20260505180845 57 52 10.0 15.0 0.00 0.00 0.00 82 1007.1
20260505180341 57 21 11.0 17.0 0.00 0.00 0.00 83 1007.1
20260505175838 57 348 10.0 20.0 0.00 0.00 0.00 83 1006.9
20260505175334 57 359 7.0 17.0 0.00 0.00 0.00 83 1006.9
20260505174831 58 39 9.0 16.0 0.00 0.00 0.00 82 1006.8
20260505174329 57 19 10.0 17.0 0.00 0.00 0.00 83 1006.5
20260505173824 57 27 8.0 16.0 0.00 0.00 0.00 84 1006.4
20260505173320 57 83 11.0 18.0 0.00 0.00 0.00 84 1006.6
20260505172819 58 356 6.0 16.0 0.00 0.00 0.00 85 1006.6
20260505172316 58 32 7.0 11.0 0.00 0.00 0.00 84 1006.8
20260505171815 58 12 5.0 8.0 0.00 0.00 0.00 85 1006.3
20260505171313 58 351 5.0 13.0 0.00 0.00 0.00 85 1006.6
20260505170809 58 22 3.0 8.0 0.00 0.00 0.00 85 1006.3
20260505170306 58 336 7.0 11.0 0.00 0.00 0.00 85 1006.4
20260505165801 58 351 4.0 16.0 0.00 0.00 0.00 85 1006.0
20260505165257 58 337 9.0 14.0 0.00 0.00 0.00 85 1005.8
20260505164753 58 42 6.0 14.0 0.00 0.00 0.00 85 1005.7
20260505164250 58 353 7.0 14.0 0.00 0.00 0.00 85 1005.7
20260505163749 58 356 5.0 13.0 0.00 0.00 0.00 85 1005.5
20260505163247 59 334 10.0 13.0 0.00 0.00 0.00 86 1005.6
20260505162744 58 334 7.0 13.0 0.00 0.00 0.00 85 1005.4
20260505162241 59 337 8.0 11.0 0.00 0.00 0.00 85 1005.2
20260505161737 59 356 4.0 10.0 0.00 0.00 0.00 85 1005.2
20260505161235 59 357 3.0 13.0 0.00 0.00 0.00 87 1005.0
20260505160732 60 356 8.0 14.0 0.00 0.00 0.00 87 1004.7
20260505160230 59 352 5.0 17.0 0.00 0.00 0.00 87 1004.8
20260505153209 61 43 9.0 13.0 0.00 0.00 0.00 87 1003.3
20260505152706 61 358 5.0 16.0 0.00 0.00 0.00 87 1003.7
20260505152202 62 357 5.0 14.0 0.00 0.00 0.00 87 1003.2
20260505151657 62 331 6.0 15.0 0.00 0.00 0.00 87 1003.2
20260505151156 63 6 5.0 15.0 0.00 0.00 0.00 86 1003.1
20260505150651 69 327 7.0 14.0 0.00 0.00 0.00 87 1003.1
20260505150148 69 359 2.0 7.0 0.00 0.00 0.00 87 1002.6
20260505140617 71 344 1.0 1.0 0.00 0.00 0.00 81 1001.8
20260505140114 70 2 0.0 1.0 0.00 0.00 0.00 81 1001.7
20260505125030 69 335 0.0 0.0 0.00 0.00 0.00 86 1001.4
20260505124527 69 329 1.0 2.0 0.00 0.00 0.00 85 1001.3
20260505124023 69 331 0.0 1.0 0.00 0.00 0.00 84 1001.2
20260505123520 69 339 2.0 3.0 0.00 0.00 0.00 84 1001.1
20260505123016 69 216 3.0 8.0 0.00 0.00 0.00 84 1000.7
20260505122513 69 230 4.0 7.0 0.00 0.00 0.00 84 1000.7
20260505122010 69 218 7.0 10.0 0.00 0.00 0.00 83 1000.3
20260505121506 69 218 4.0 9.0 0.00 0.00 0.00 84 1000.5
20260505121003 68 214 5.0 6.0 0.00 0.00 0.00 84 1000.3
20260505120459 69 235 3.0 6.0 0.00 0.00 0.00 84 1000.2
20260505115958 68 214 5.0 9.0 0.00 0.00 0.00 84 1000.0
20260505115454 69 201 4.0 7.0 0.00 0.00 0.00 84 1000.3
20260505114953 69 251 4.0 7.0 0.00 0.00 0.00 84 1000.0
20260505114449 69 207 3.0 9.0 0.00 0.00 0.00 83 999.8
20260505113946 69 183 7.0 9.0 0.00 0.00 0.00 84 999.9
20260505113442 69 174 3.0 9.0 0.00 0.00 0.00 83 999.8
20260505112937 69 239 6.0 8.0 0.00 0.00 0.00 83 999.4
20260505112435 69 182 6.0 13.0 0.00 0.00 0.00 82 999.6
20260505111932 69 214 8.0 10.0 0.00 0.00 0.00 82 999.5
20260505111426 69 217 7.0 9.0 0.00 0.00 0.00 82 999.5
20260505110923 69 221 5.0 10.0 0.00 0.00 0.00 82 999.5
20260505110420 69 227 9.0 14.0 0.00 0.00 0.00 82 999.3
20260505101850 71 225 7.0 13.0 0.00 0.00 0.00 80 999.2
20260505101345 71 216 5.0 11.0 0.00 0.00 0.00 80 999.3
20260505100841 71 217 7.0 15.0 0.00 0.00 0.00 80 999.3
20260505100338 71 221 11.0 16.0 0.00 0.00 0.00 79 999.2
20260505095834 71 191 8.0 18.0 0.00 0.00 0.00 79 999.2
20260505095332 71 206 9.0 14.0 0.00 0.00 0.00 80 999.3
20260505094827 71 210 10.0 14.0 0.00 0.00 0.00 79 999.3
20260505094325 71 184 10.0 13.0 0.00 0.00 0.00 80 999.5
20260505093820 71 206 11.0 15.0 0.00 0.00 0.00 80 999.3
20260505093318 71 207 7.0 11.0 0.00 0.00 0.00 80 999.0
20260505092814 71 211 10.0 14.0 0.00 0.00 0.00 80 999.2
20260505092313 71 203 7.0 14.0 0.00 0.00 0.00 80 999.1
20260505091810 71 208 9.0 14.0 0.00 0.00 0.00 80 999.2
20260505091308 71 197 9.0 13.0 0.00 0.00 0.00 80 999.1
20260505090806 71 196 9.0 10.0 0.00 0.00 0.00 80 999.5
20260505090304 71 191 7.0 10.0 0.00 0.00 0.00 80 999.3
20260505085801 72 195 8.0 11.0 0.00 0.00 0.00 79 999.5
20260505085259 72 212 9.0 13.0 0.00 0.00 0.00 79 999.5
20260505084756 72 229 8.0 14.0 0.00 0.00 0.00 79 999.6
20260505084255 72 181 7.0 13.0 0.00 0.00 0.00 79 999.5
20260505083751 72 215 11.0 14.0 0.00 0.00 0.00 79 999.4
20260505083248 72 217 9.0 11.0 0.00 0.00 0.00 78 999.5
20260505082744 72 196 9.0 13.0 0.00 0.00 0.00 79 999.5
20260505082242 72 203 8.0 15.0 0.00 0.00 0.00 79 999.7
20260505081737 72 191 8.0 10.0 0.00 0.00 0.00 79 999.8
20260505081235 72 183 12.0 14.0 0.00 0.00 0.00 79 999.7
20260505080732 72 222 11.0 18.0 0.00 0.00 0.00 80 999.8
20260505080227 71 186 9.0 13.0 0.00 0.00 0.00 80 999.9
20260505075723 72 188 7.0 9.0 0.00 0.00 0.00 80 999.8
20260505075221 72 149 7.0 14.0 0.00 0.00 0.00 79 999.8
20260505074718 72 210 11.0 13.0 0.00 0.00 0.00 79 999.9
20260505074215 72 189 9.0 13.0 0.00 0.00 0.00 79 1000.1
20260505073712 72 210 5.0 13.0 0.00 0.00 0.00 79 1000.3
20260505073210 72 211 6.0 10.0 0.00 0.00 0.00 79 1000.2
20260505072706 71 192 8.0 13.0 0.00 0.00 0.00 80 1000.0
20260505072202 71 183 10.0 17.0 0.00 0.00 0.00 79 1000.1
20260505071658 71 229 11.0 16.0 0.00 0.00 0.00 80 1000.2
20260505071155 71 180 9.0 11.0 0.00 0.00 0.00 80 1000.2
20260505070653 71 207 11.0 15.0 0.00 0.00 0.00 80 1000.4
20260505070149 71 242 11.0 15.0 0.00 0.00 0.00 80 1000.5
20260505065645 71 203 11.0 14.0 0.00 0.00 0.00 80 1000.6
20260505065142 71 195 7.0 13.0 0.00 0.00 0.00 80 1000.4
20260505064639 71 202 8.0 10.0 0.00 0.00 0.00 80 1000.8
20260505064137 71 182 12.0 18.0 0.00 0.00 0.00 79 1000.5
20260505063634 71 183 7.0 11.0 0.00 0.00 0.00 80 1000.8
20260505063130 71 221 8.0 14.0 0.00 0.00 0.00 79 1001.0
20260505062626 71 207 9.0 11.0 0.00 0.00 0.00 79 1000.8
20260505062124 71 190 8.0 17.0 0.00 0.00 0.00 79 1000.8
20260505061621 72 196 13.0 16.0 0.00 0.00 0.00 79 1001.1
20260505061119 72 185 9.0 14.0 0.00 0.00 0.00 78 1000.8
20260505060616 72 131 12.0 17.0 0.00 0.00 0.00 78 1001.1
20260505060113 72 192 5.0 11.0 0.00 0.00 0.00 79 1001.1
20260505055608 72 198 10.0 16.0 0.00 0.00 0.00 78 1001.1
20260505055105 72 223 9.0 15.0 0.00 0.00 0.00 78 1001.2
20260505054602 72 207 10.0 18.0 0.00 0.00 0.00 78 1001.2
20260505054101 72 183 8.0 14.0 0.00 0.00 0.00 77 1001.2
20260505053557 72 203 7.0 17.0 0.00 0.00 0.00 77 1001.3
20260505053054 72 189 13.0 17.0 0.00 0.00 0.00 77 1001.5
20260505052551 73 142 11.0 16.0 0.00 0.00 0.00 77 1001.3
20260505052048 72 225 11.0 15.0 0.00 0.00 0.00 77 1001.4
20260505051545 72 214 8.0 13.0 0.00 0.00 0.00 77 1001.6
20260505051043 73 188 6.0 11.0 0.00 0.00 0.00 77 1001.5
20260505050541 73 188 8.0 14.0 0.00 0.00 0.00 77 1001.7
20260505041509 74 215 14.0 17.0 0.00 0.00 0.00 74 1001.7
20260505041006 74 220 12.0 18.0 0.00 0.00 0.00 74 1001.8
20260505040503 74 201 12.0 14.0 0.00 0.00 0.00 75 1001.9
20260505040000 74 176 10.0 15.0 0.00 0.00 0.00 75 1002.0
20260505035456 74 196 8.0 16.0 0.00 0.00 0.00 75 1002.0
20260505034953 74 195 7.0 18.0 0.00 0.00 0.00 75 1001.9
20260505034450 74 204 12.0 17.0 0.00 0.00 0.00 74 1002.2
20260505033947 74 206 12.0 17.0 0.00 0.00 0.00 74 1001.7
20260505033443 74 203 12.0 18.0 0.00 0.00 0.00 74 1001.9
20260505032942 74 204 7.0 10.0 0.00 0.00 0.00 73 1001.9
20260505032439 74 219 13.0 18.0 0.00 0.00 0.00 73 1002.1
20260505031935 75 174 9.0 17.0 0.00 0.00 0.00 73 1001.9
20260505031432 75 210 9.0 10.0 0.00 0.00 0.00 73 1001.7
20260505030929 75 221 14.0 18.0 0.00 0.00 0.00 72 1001.7
20260505030425 75 208 10.0 14.0 0.00 0.00 0.00 71 1001.6
20260505025920 75 202 10.0 20.0 0.00 0.00 0.00 70 1001.6
20260505025418 75 229 12.0 18.0 0.00 0.00 0.00 70 1001.5
20260505024917 75 215 14.0 16.0 0.00 0.00 0.00 70 1001.8
20260505024414 75 203 10.0 17.0 0.00 0.00 0.00 70 1001.8
20260505023911 75 167 15.0 20.0 0.00 0.00 0.00 69 1001.5
20260505023408 76 168 10.0 17.0 0.00 0.00 0.00 69 1001.6
20260505022905 76 197 9.0 11.0 0.00 0.00 0.00 69 1001.6
20260505022402 76 194 10.0 15.0 0.00 0.00 0.00 69 1001.4
20260505021859 76 190 14.0 22.0 0.00 0.00 0.00 68 1001.3
20260505021355 76 172 10.0 18.0 0.00 0.00 0.00 68 1001.7
20260505020852 76 241 10.0 15.0 0.00 0.00 0.00 68 1001.5
20260505020347 76 234 12.0 14.0 0.00 0.00 0.00 68 1001.6
20260505015844 76 195 9.0 15.0 0.00 0.00 0.00 68 1001.4
20260505015341 76 149 10.0 13.0 0.00 0.00 0.00 68 1001.5
20260505014839 77 188 8.0 15.0 0.00 0.00 0.00 67 1001.3
20260505014336 77 203 11.0 18.0 0.00 0.00 0.00 67 1001.6
20260505013832 77 213 7.0 16.0 0.00 0.00 0.00 67 1001.5
20260505013329 77 167 13.0 16.0 0.00 0.00 0.00 66 1001.5
20260505012828 77 204 10.0 20.0 0.00 0.00 0.00 66 1001.1
20260505012325 77 215 12.0 16.0 0.00 0.00 0.00 66 1001.4
20260505011820 77 191 13.0 20.0 0.00 0.00 0.00 65 1001.4
20260505011318 77 208 15.0 18.0 0.00 0.00 0.00 65 1001.3
20260505010814 78 137 11.0 20.0 0.00 0.00 0.00 65 1001.4
20260505010310 78 221 10.0 15.0 0.00 0.00 0.00 65 1001.2
20260505005806 78 221 9.0 14.0 0.00 0.00 0.00 64 1001.4
20260505005304 78 210 9.0 13.0 0.00 0.00 0.00 64 1001.7
20260505004801 78 185 11.0 16.0 0.00 0.00 0.00 64 1001.7
20260505004256 78 181 13.0 16.0 0.00 0.00 0.00 64 1001.5
20260505003754 78 179 15.0 18.0 0.00 0.00 0.00 63 1001.6
20260505003252 79 253 11.0 20.0 0.00 0.00 0.00 63 1001.7
20260505002748 79 198 12.0 16.0 0.00 0.00 0.00 63 1001.6
20260505002245 79 172 13.0 18.0 0.00 0.00 0.00 62 1001.6
20260505001743 80 206 8.0 13.0 0.00 0.00 0.00 62 1001.7
20260505001240 79 212 7.0 21.0 0.00 0.00 0.00 62 1001.7
20260505000737 80 181 13.0 15.0 0.00 0.00 0.00 62 1001.5
20260505000235 80 175 9.0 16.0 0.00 0.00 0.00 62 1001.8
20260504235731 80 196 14.0 17.0 0.00 0.00 0.00 61 1001.8
20260504235227 80 137 13.0 21.0 0.00 0.00 0.00 62 1001.8
20260504234725 80 190 6.0 14.0 0.00 0.00 0.00 61 1002.0
20260504234222 80 201 16.0 23.0 0.00 0.00 0.00 61 1001.9
20260504233718 81 209 17.0 20.0 0.00 0.00 0.00 60 1002.0
20260504233214 80 208 9.0 21.0 0.00 0.00 0.00 60 1002.1
20260504232711 81 138 9.0 17.0 0.00 0.00 0.00 60 1002.0
20260504232208 81 170 11.0 23.0 0.00 0.00 0.00 59 1002.0
20260504231705 81 170 12.0 22.0 0.00 0.00 0.00 59 1002.2
20260504231201 81 198 9.0 20.0 0.00 0.00 0.00 58 1002.0
20260504230657 81 188 11.0 23.0 0.00 0.00 0.00 58 1002.0
20260504230156 82 203 12.0 21.0 0.00 0.00 0.00 56 1002.2